EW8004 Weather Reports


time (UTC)temp
C
wind
direction
speed
KPH
gust
KPH
rain 1hr
cm
rain 24hr
cm
rain mn
cm
humidity
%
barometer
mb
20260505124532 11 109 0.0 0.0 0.00 0.00 0.00 97 1014.3
20260505123033 10 109 0.0 0.0 0.00 0.00 0.00 97 1014.2
20260505121534 9 108 0.0 0.0 0.00 0.00 0.00 96 1014.1
20260505120026 8 109 0.0 0.0 0.00 0.00 0.00 96 1014.1
20260505114526 8 108 0.0 0.0 0.00 0.00 0.00 96 1014.1
20260505113025 8 108 0.0 0.0 0.00 0.00 0.00 95 1014.1
20260505111521 8 108 0.0 0.0 0.00 0.00 0.00 94 1013.8
20260505101515 8 109 0.0 0.0 0.00 0.00 0.00 93 1013.4
20260505100017 8 109 0.0 0.0 0.00 0.00 0.00 93 1013.4
20260505094511 8 108 0.0 0.0 0.00 0.00 0.00 93 1013.4
20260505093110 9 108 0.0 0.0 0.00 0.00 0.00 93 1013.6
20260505091509 9 109 0.0 0.0 0.00 0.00 0.00 92 1013.6
20260505090006 10 108 0.0 0.0 0.00 0.00 0.00 92 1013.6
20260505084503 10 108 0.0 0.0 0.00 0.00 0.00 92 1013.3
20260505083107 10 108 0.0 0.0 0.00 0.00 0.00 92 1013.2
20260505081601 10 108 0.0 0.0 0.00 0.00 0.00 92 1013.1
20260505080055 10 108 0.0 0.0 0.00 0.00 0.00 91 1012.8
20260505074553 11 108 0.0 0.0 0.00 0.00 0.00 91 1012.7
20260505073053 11 108 0.0 0.0 0.00 0.00 0.00 91 1012.6
20260505071552 11 108 0.0 0.0 0.00 0.00 0.00 90 1012.7
20260505070051 11 108 0.0 0.0 0.00 0.00 0.00 91 1012.8
20260505064550 11 108 0.0 0.0 0.00 0.00 0.00 92 1012.7
20260505063049 11 108 0.0 0.0 0.00 0.00 0.00 93 1012.6
20260505061550 11 108 0.0 0.0 0.00 0.00 0.00 93 1012.6
20260505060048 11 109 0.0 0.0 0.00 0.00 0.00 93 1012.6
20260505054553 11 109 0.0 0.0 0.00 0.00 0.00 94 1012.6
20260505053043 11 109 0.0 0.0 0.00 0.00 0.00 94 1012.5
20260505051542 11 108 0.0 0.0 0.00 0.00 0.00 93 1012.2
20260505041534 11 108 0.0 0.0 0.00 0.00 0.00 92 1012.2
20260505040031 11 108 0.0 0.0 0.00 0.00 0.00 91 1012.2
20260505034529 11 108 0.0 0.0 0.00 0.00 0.00 91 1012.2
20260505033036 11 108 0.0 0.0 0.00 0.00 0.00 91 1012.3
20260505031534 12 108 0.0 0.0 0.00 0.00 0.00 90 1012.4
20260505030028 12 108 0.0 0.0 0.00 0.00 0.00 88 1012.4
20260505024543 12 108 0.0 0.0 0.00 0.00 0.00 87 1012.5
20260505023036 13 108 0.0 0.0 0.00 0.00 0.00 86 1012.7
20260505021527 13 108 0.0 0.0 0.00 0.00 0.00 84 1012.6
20260505020025 14 108 0.0 0.0 0.00 0.00 0.00 83 1012.4
20260505014534 15 108 0.0 0.0 0.00 0.00 0.00 81 1012.4
20260505013025 15 108 0.0 0.0 0.00 0.00 0.00 79 1012.3
20260505011524 16 108 0.0 0.0 0.00 0.00 0.00 77 1012.1
20260505010023 17 108 0.0 0.0 0.00 0.00 0.00 74 1012.0
20260505004524 18 108 0.0 0.0 0.00 0.00 0.00 71 1011.9
20260505003022 18 108 0.0 0.0 0.00 0.00 0.00 71 1011.8
20260505001522 19 108 0.0 0.0 0.00 0.00 0.00 69 1011.7
20260505000022 20 108 0.0 0.0 0.00 0.00 0.00 70 1011.7
20260504234521 20 108 0.0 0.0 0.00 0.00 0.00 67 1011.6
20260504233019 20 108 0.0 0.0 0.00 0.00 0.00 65 1011.5
20260504231518 21 108 0.0 0.0 0.00 0.00 0.00 62 1011.6
20260504230017 21 108 0.0 0.0 0.00 0.00 0.00 61 1011.8
20260504224516 21 186 0.0 0.0 0.00 0.00 0.00 60 1011.7
20260504223015 21 141 0.0 0.0 0.00 0.00 0.00 60 1011.7
20260504221516 21 148 0.0 0.0 0.00 0.00 0.00 61 1011.8
20260504220013 21 26 0.0 0.0 0.00 0.00 0.00 59 1011.9
20260504214512 21 25 0.0 0.0 0.00 0.00 0.00 58 1011.8
20260504213018 22 22 0.0 0.0 0.00 0.00 0.00 57 1011.9
20260504211515 22 333 0.0 0.0 0.00 0.00 0.00 58 1011.9
20260504210009 22 119 0.0 0.0 0.00 0.00 0.00 61 1012.0
20260504204515 22 186 0.0 0.0 0.00 0.00 0.00 60 1012.3
20260504203007 22 190 0.0 0.0 0.00 0.00 0.00 60 1012.3
20260504201505 23 236 0.0 0.0 0.00 0.00 0.00 59 1012.5
20260504200004 23 131 0.0 0.0 0.00 0.00 0.00 59 1012.7
20260504194502 23 161 0.0 0.0 0.00 0.00 0.00 58 1012.8
20260504193002 23 194 0.0 0.0 0.00 0.00 0.00 54 1013.1
20260504191604 23 170 0.0 0.0 0.00 0.00 0.00 56 1013.4
20260504190058 23 166 0.0 0.0 0.00 0.00 0.00 53 1013.7
20260504184559 23 229 0.0 0.0 0.00 0.00 0.00 56 1013.9
20260504183058 23 182 0.0 0.0 0.00 0.00 0.00 55 1014.2
20260504181551 23 186 0.0 0.0 0.00 0.00 0.00 52 1014.4
20260504180051 23 139 0.0 0.0 0.00 0.00 0.00 52 1014.5
20260504174546 22 227 0.0 0.0 0.00 0.00 0.00 54 1014.7
20260504173055 22 178 0.0 0.0 0.00 0.00 0.00 52 1015.0
20260504171540 22 202 0.0 0.0 0.00 0.00 0.00 52 1015.2